EUTELSAT KA-SAT 9A

Last updated on Thu Aug 13 2026 00:02:58 GMT+0000 (Coordinated Universal Time)

1 37258U 10069A 26224.57382814 .00000044 00000+0 00000+0 0 9991 2 37258 0.0692 349.8952 0005174 167.6746 19.0209 1.00271860 44574
UTC large
Height (km)
Speed (km/s)
/
Latitude / Longitude
Inclination (degrees)
Orbital Period (minutes)
Azimuth
Elevation
Range (km)
Doppler Factor

Next 0 passes for location: London (51.5072 / 0.1276)

No passes found over London.
EUTELSAT KA-SAT 9A